STARLINK-1705 (46579 NORAD) Tracking and Keplerian Element Data

This shows tracking and keplerian element data for the satellite.

Feedback or suggestion? Click here.




ElementValue
Catalog46579
NameSTARLINK-1705
Epoch Orbit177
Epoch Day304.91667824
Epoch Year2020
RAAN321.9497
Inclination53.0007
Eccentricity0.0001227
Argument of Perigee68.2566
Mean Anonmoly187.7577
Mean Motion15.62752205
Decay Rate-4.22E-06
L11 46579U 20070AZ 20304.91667824 -.00000422 00000-0 12283-5 0 9992
L22 46579 53.0007 321.9497 0001227 68.2566 187.7577 15.62752205 1770

Live tracking and technical data element details for STARLINK-1705 (NORAD 46579). STARLINK-1705 can be tracked NOW for your location showing map with azimuth and elevation plus other details from your city location.

Track the satellite on the map from your city or location and see movement details for azimuth, elevation, latitude, longitude, range, height, and movement on the map or in text.







IsCatalogInMostPopularTable: catalog: 46579, numindb: 3
Update: records affected: 1



GetName: 46579 STARLINK-1705

Hit Count: updated at: Sat, 31 Oct 2020 08:07:15 GMT